Wind_Speed
74 78 81 84 86 89 92 94 96 97 96 97 97 97 98 98 98 97 95 95 93 90 88 84 81 86 84 79 80 81 78 75 73 69 65 65 66 65
80 83 85 86 89 90 92 95 97 99 100 97 98 99 101 102 103 103 103 103 103 100 99 96 93 91 91 90 87 86 85 82 78 75 71 69 69 70
84 86 87 88 90 91 93 95 98 102 105 98 103 105 108 108 105 102 101 101 97 97 104 107 106 103 101 99 98 93 92 91 87 82 79 75 72 72
85 86 87 90 92 94 96 100 104 107 107 105 99 90 86 79 74 71 67 67 70 68 71 80 88 96 101 108 107 105 101 97 96 91 87 82 77 75
85 87 90 92 95 100 103 104 100 90 80 73 65 57 57 57 59 60 61 59 58 55 55 59 66 71 74 83 99 110 107 104 101 99 95 88 84 78
88 91 95 99 102 103 99 87 75 66 59 60 58 56 59 58 62 63 64 63 62 60 54 54 55 60 64 65 73 87 103 104 104 103 100 96 90 86
92 96 100 100 92 81 71 62 59 57 54 55 58 59 60 64 66 68 69 67 62 58 55 52 51 50 55 60 62 68 81 96 99 101 102 100 96 91
97 99 93 80 69 61 58 58 57 53 56 59 59 61 62 65 67 66 62 60 53 46 52 49 48 45 45 51 59 63 68 76 91 96 97 100 100 96
96 81 69 59 57 58 57 58 57 58 61 61 63 62 64 66 69 60 49 47 44 40 47 45 43 44 43 43 48 59 66 68 74 87 94 94 98 99
73 60 54 55 57 58 56 55 54 56 58 60 62 64 66 68 59 47 43 41 38 36 42 41 39 43 43 43 44 49 57 65 68 72 84 91 92 95
53 53 55 55 56 54 52 51 51 49 54 58 59 63 66 60 46 39 39 39 35 33 37 40 37 42 42 40 37 41 46 51 60 66 71 80 88 91
50 52 54 53 49 50 51 48 46 48 53 54 55 63 55 44 35 35 37 38 36 32 34 39 39 41 39 34 33 34 38 42 49 56 64 68 79 87
48 50 48 46 46 47 46 47 50 51 55 54 58 52 43 33 29 32 34 37 37 34 30 35 36 36 35 31 29 32 33 37 41 47 57 63 70 76
47 45 41 40 40 43 46 45 45 50 52 49 57 47 36 28 27 29 31 33 34 34 29 30 31 30 31 29 27 30 32 34 35 38 45 53 63 71
42 40 36 42 43 42 42 44 43 46 48 48 54 41 33 27 26 27 29 30 31 31 29 31 32 29 33 31 28 29 33 33 32 33 38 46 56 65
40 35 39 42 39 38 40 45 44 46 46 48 45 34 29 26 25 26 27 29 29 26 28 31 35 36 36 33 31 28 30 33 33 33 36 42 50 59
34 35 40 42 40 39 41 41 43 44 44 44 44 33 27 25 23 25 27 28 27 25 24 28 34 38 41 40 34 31 34 34 36 35 36 38 45 54
32 35 38 37 37 38 39 40 41 41 40 40 41 35 28 26 24 24 26 28 26 24 24 25 30 38 43 44 38 33 34 36 39 40 39 38 40 50
33 35 35 36 37 39 38 39 38 38 36 37 38 34 30 25 25 25 25 28 27 25 27 27 27 31 38 40 43 41 38 39 40 42 41 40 41 43
32 34 35 34 37 39 37 37 35 36 32 31 33 35 32 27 23 23 25 26 27 27 27 26 26 26 30 32 41 42 40 39 41 40 40 42 42 46
31 32 33 34 37 39 39 36 34 34 31 30 30 30 33 34 28 21 21 23 25 27 27 26 26 29 26 26 23 31 43 44 44 43 43 43 43 44
30 32 35 36 38 38 38 36 33 32 32 30 32 31 29 30 32 27 20 17 19 22 23 23 25 27 25 23 21 23 29 40 43 41 42 43 42 42
33 35 37 36 37 37 36 35 32 31 32 30 27 27 29 27 28 28 21 19 15 15 16 17 18 21 23 23 21 20 22 28 35 36 35 38 41 41
Wind_Direction
297 296 295 294 293 292 291 290 289 286 285 286 286 286 285 283 281 279 278 276 273 270 266 262 258 259 258 252 250 252 252 251 250 248 243 241 243 243
297 296 296 296 296 295 294 294 294 293 288 289 289 288 285 283 280 277 274 271 269 267 264 260 258 255 253 254 250 248 250 250 249 246 244 239 239 240
299 299 299 298 298 299 298 298 297 295 293 291 289 286 284 283 281 279 277 273 270 268 264 259 255 252 249 248 249 247 245 247 246 245 244 241 237 237
300 301 302 301 301 301 300 298 296 293 293 292 289 288 286 286 285 283 281 279 276 271 267 263 259 254 250 246 244 245 244 242 243 243 241 241 238 235
305 305 304 303 302 301 298 295 295 295 295 295 295 293 291 291 289 287 284 281 280 277 272 267 260 254 251 246 243 241 241 241 240 240 240 238 237 233
306 306 305 304 301 299 298 298 299 298 295 294 296 296 296 296 292 289 286 283 278 274 273 272 269 261 252 249 242 240 239 238 238 237 236 236 235 233
307 305 303 302 302 301 301 300 300 299 298 296 297 297 298 296 293 290 287 284 278 272 269 269 272 272 258 248 246 240 238 236 235 234 233 232 233 232
308 305 304 304 303 301 301 302 301 298 297 296 296 296 298 297 299 295 285 281 275 270 267 265 270 271 263 254 245 242 240 237 236 233 232 230 230 230
307 305 306 304 300 302 301 300 297 296 296 294 294 297 301 298 302 294 283 277 276 271 267 267 270 271 265 259 252 245 241 238 236 234 231 230 228 227
307 308 306 305 304 303 301 300 298 300 297 295 298 298 300 301 298 286 277 277 277 274 272 270 271 272 268 264 256 250 243 238 236 235 233 230 227 226
308 308 309 307 305 304 303 303 304 307 302 303 302 301 300 299 288 277 275 276 275 271 270 274 273 272 269 264 261 249 242 236 235 233 232 231 229 225
312 312 311 309 309 308 307 307 308 308 309 306 305 306 301 294 277 271 273 274 274 269 271 273 272 268 265 258 256 245 243 236 233 230 229 227 229 228
313 313 312 312 314 314 312 311 311 314 313 309 313 311 303 288 272 269 269 270 273 274 275 273 265 259 256 252 245 239 242 237 233 229 227 226 224 225
315 316 316 320 321 321 320 317 314 316 316 311 316 312 302 281 268 267 268 269 273 277 276 266 257 253 249 247 239 244 243 238 236 229 226 226 221 221
317 316 319 323 321 321 325 325 321 319 320 316 317 311 300 284 272 270 269 270 274 278 276 259 252 243 242 247 243 240 242 240 237 236 226 222 220 218
315 311 314 316 317 318 320 326 328 325 324 323 326 313 300 286 277 273 271 272 277 276 275 263 251 245 241 242 240 236 237 237 241 238 232 222 218 216
316 315 317 318 316 315 321 322 327 330 327 328 332 321 302 286 278 275 273 273 282 274 275 270 254 246 241 244 242 235 232 236 240 239 236 227 219 216
317 320 326 326 327 326 324 324 326 333 336 335 334 331 314 292 279 274 274 279 285 278 271 273 263 251 244 241 240 235 235 232 237 235 236 233 222 219
315 321 326 329 330 329 332 333 332 333 342 338 348 344 333 311 289 276 272 275 281 280 273 267 271 259 253 246 241 238 237 239 235 236 239 236 229 222
317 322 325 330 334 337 333 335 336 337 341 345 345 355 354 342 319 296 278 273 273 275 275 273 267 269 261 253 243 240 240 237 239 238 238 239 235 225
316 320 323 326 332 337 339 336 337 337 336 337 339 345 350 359 350 328 304 285 274 270 269 270 268 263 266 263 258 241 237 237 235 237 239 239 236 229
317 318 321 321 326 332 337 338 335 339 339 334 331 335 342 344 353 347 336 316 294 284 279 273 268 267 270 270 261 250 242 240 241 236 235 236 233 227
312 315 317 317 320 326 334 338 335 338 344 340 336 340 333 332 342 349 346 347 327 308 295 285 277 273 272 273 270 261 249 243 242 238 235 232 230 222
Height
5671 5665 5658 5651 5643 5636 5628 5619 5612 5613 5615 5607 5598 5590 5584 5580 5577 5575 5574 5573 5577 5584 5587 5592 5597 5599 5604 5613 5619 5622 5628 5635 5643 5649 5657 5664 5670 5676
5651 5644 5636 5628 5620 5611 5602 5593 5583 5574 5578 5576 5569 5560 5550 5544 5540 5537 5538 5537 5536 5542 5545 5553 5561 5569 5574 5579 5590 5597 5602 5609 5618 5627 5635 5643 5651 5657
5630 5621 5614 5604 5595 5586 5577 5566 5556 5541 5530 5551 5534 5525 5512 5504 5500 5496 5496 5495 5497 5497 5500 5507 5518 5527 5536 5545 5552 5564 5575 5582 5591 5602 5611 5620 5628 5638
5608 5599 5589 5579 5570 5559 5549 5539 5526 5513 5495 5489 5505 5492 5477 5472 5468 5464 5463 5462 5462 5466 5463 5466 5473 5482 5491 5503 5516 5525 5538 5551 5561 5571 5581 5598 5607 5617
5585 5575 5566 5555 5546 5534 5522 5509 5495 5484 5472 5462 5465 5465 5456 5454 5447 5444 5441 5441 5439 5440 5441 5440 5442 5446 5453 5462 5473 5486 5498 5513 5531 5540 5554 5567 5581 5594
5564 5551 5540 5528 5515 5502 5490 5478 5469 5462 5455 5448 5444 5444 5437 5436 5427 5423 5419 5419 5418 5420 5422 5421 5420 5422 5428 5433 5442 5453 5460 5474 5490 5506 5523 5539 5554 5568
5541 5527 5514 5499 5486 5473 5463 5458 5451 5444 5439 5433 5429 5424 5422 5415 5408 5402 5395 5395 5396 5399 5401 5402 5402 5404 5407 5410 5416 5423 5429 5438 5454 5472 5490 5509 5526 5541
5518 5503 5487 5475 5465 5457 5449 5441 5435 5428 5424 5416 5411 5406 5403 5394 5388 5379 5372 5371 5373 5380 5377 5383 5383 5386 5386 5389 5393 5399 5405 5414 5425 5442 5461 5478 5496 5512
5489 5478 5469 5458 5450 5443 5437 5429 5422 5414 5406 5399 5393 5389 5381 5376 5368 5358 5355 5353 5358 5364 5359 5363 5367 5368 5370 5372 5374 5377 5383 5391 5400 5413 5430 5448 5467 5485
5468 5459 5453 5446 5435 5428 5422 5416 5410 5402 5393 5385 5376 5370 5362 5356 5348 5343 5341 5341 5344 5348 5344 5347 5353 5351 5352 5354 5357 5358 5361 5371 5382 5393 5406 5420 5439 5458
5454 5447 5438 5431 5422 5414 5407 5401 5396 5389 5379 5370 5362 5353 5344 5336 5332 5329 5329 5328 5332 5336 5333 5331 5338 5335 5336 5339 5341 5341 5346 5352 5361 5373 5384 5398 5414 5431
5444 5435 5426 5417 5409 5401 5392 5386 5380 5373 5364 5357 5349 5337 5326 5320 5318 5318 5318 5317 5319 5323 5323 5320 5322 5321 5323 5328 5329 5331 5333 5338 5344 5354 5365 5376 5391 5408
5431 5424 5415 5407 5398 5389 5381 5374 5366 5358 5350 5340 5332 5321 5312 5307 5308 5308 5308 5307 5307 5309 5314 5309 5309 5310 5312 5317 5321 5322 5324 5327 5333 5340 5349 5359 5372 5388
5419 5411 5404 5396 5389 5381 5372 5363 5354 5346 5336 5327 5318 5308 5301 5298 5297 5297 5298 5299 5298 5298 5302 5300 5299 5301 5304 5308 5312 5314 5316 5319 5323 5329 5337 5346 5356 5368
5407 5401 5394 5387 5380 5372 5363 5354 5345 5337 5326 5317 5307 5297 5291 5288 5288 5288 5288 5289 5289 5291 5291 5290 5290 5292 5295 5299 5304 5307 5309 5311 5315 5320 5325 5332 5342 5352
5400 5393 5387 5380 5372 5364 5356 5347 5336 5326 5317 5307 5296 5287 5282 5280 5279 5279 5279 5279 5279 5281 5280 5280 5281 5284 5286 5289 5293 5299 5301 5304 5307 5311 5316 5323 5331 5340
5392 5386 5379 5371 5363 5356 5348 5339 5330 5320 5309 5299 5288 5280 5275 5272 5271 5270 5270 5270 5270 5270 5270 5269 5271 5272 5275 5279 5284 5289 5292 5296 5299 5301 5307 5313 5320 5328
5385 5379 5371 5363 5356 5349 5341 5333 5323 5314 5304 5294 5284 5275 5268 5264 5263 5262 5262 5261 5261 5261 5261 5261 5260 5261 5264 5269 5275 5280 5283 5286 5288 5292 5297 5303 5310 5316
5378 5372 5365 5357 5350 5342 5334 5325 5317 5308 5299 5290 5281 5271 5263 5258 5255 5254 5253 5252 5252 5252 5251 5252 5251 5251 5252 5258 5265 5268 5271 5274 5278 5283 5287 5293 5299 5305
5369 5364 5358 5352 5344 5336 5327 5319 5311 5303 5295 5288 5280 5271 5262 5255 5250 5246 5244 5243 5243 5243 5243 5243 5244 5244 5244 5247 5249 5256 5260 5265 5268 5272 5277 5281 5287 5293
5364 5358 5352 5346 5339 5331 5322 5314 5306 5299 5291 5285 5278 5270 5263 5255 5248 5242 5238 5235 5234 5234 5234 5235 5235 5234 5236 5237 5240 5244 5247 5249 5254 5260 5266 5270 5276 5283
5357 5352 5346 5340 5334 5326 5318 5309 5302 5295 5287 5281 5275 5268 5262 5255 5248 5240 5235 5231 5228 5227 5226 5227 5227 5226 5228 5230 5232 5233 5236 5238 5242 5247 5253 5259 5265 5272
5350 5345 5340 5334 5328 5321 5314 5306 5298 5292 5285 5278 5272 5265 5259 5254 5247 5240 5234 5229 5225 5222 5221 5221 5221 5221 5222 5222 5223 5226 5228 5229 5231 5235 5241 5246 5253 5260